,,,PA_Meas_PMT16A,,PR_Meas_QMR101_102,,RH_Meas_QMH101,,SR_Meas_QMS101,,TA_Meas_QMH101,,GenWind,,GenWind,
date,time,status,PA,status,PR,status,RH,status,SR,status,TA,status,DirAvg,status,SpdAvg,
2010-06-16, 00:00:04,VALID,1004.96,VALID,0,VALID,82.3232,VALID,0,VALID,27.5598,VALID,23,VALID,1.90508,
2010-06-16, 00:01:04,VALID,1004.93,VALID,0,VALID,82.4377,VALID,0,VALID,27.4992,VALID,43,VALID,1.18672,
2010-06-16, 00:02:04,VALID,1004.96,VALID,0,VALID,82.5979,VALID,0,VALID,27.5013,VALID,8,VALID,1.12695,
2010-06-16, 00:03:04,VALID,1004.93,VALID,0,VALID,82.6742,VALID,0,VALID,27.4818,VALID,10,VALID,2.12266,
2010-06-16, 00:04:04,VALID,1004.96,VALID,0,VALID,82.4911,VALID,0,VALID,27.5013,VALID,20,VALID,1.64844,
2010-06-16, 00:05:04,VALID,1004.95,VALID,0,VALID,82.4606,VALID,0,VALID,27.5013,VALID,360,VALID,0.627344,
2010-06-16, 00:06:04,VALID,1004.97,VALID,0,VALID,82.2775,VALID,0,VALID,27.5208,VALID,8,VALID,1.87891,
2010-06-16, 00:07:04,VALID,1004.98,VALID,0,VALID,82.369,VALID,0,VALID,27.5403,VALID,12,VALID,0.597656,
2010-06-16, 00:08:04,VALID,1004.93,VALID,0,VALID,82.369,VALID,0,VALID,27.5208,VALID,15,VALID,1.11836,
2010-06-16, 00:09:04,VALID,1004.96,VALID,0,VALID,82.4148,VALID,0,VALID,27.4797,VALID,355,VALID,1.08945,
2010-06-16, 00:10:04,VALID,1004.93,VALID,0,VALID,82.3156,VALID,0,VALID,27.5208,VALID,8,VALID,1.94453,
2010-06-16, 00:11:04,VALID,1004.93,VALID,0,VALID,82.3766,VALID,0,VALID,27.5013,VALID,37,VALID,1.54727,
2010-06-16, 00:12:04,VALID,1004.91,VALID,0,VALID,82.3538,VALID,0,VALID,27.4797,VALID,357,VALID,1.08555,
2010-06-16, 00:13:04,VALID,1004.94,VALID,0,VALID,82.6284,VALID,0,VALID,27.4602,VALID,20,VALID,0.758984,
2010-06-16, 00:14:04,VALID,1004.91,VALID,0,VALID,82.8496,VALID,0,VALID,27.4213,VALID,9,VALID,2.07188,
2010-06-16, 00:15:04,VALID,1004.89,VALID,0,VALID,82.8725,VALID,0,VALID,27.4233,VALID,12,VALID,1.78828,
2010-06-16, 00:16:04,VALID,1004.85,VALID,0,VALID,82.8115,VALID,0,VALID,27.4018,VALID,7,VALID,1.66367,
2010-06-16, 00:17:04,VALID,1004.82,VALID,0,VALID,82.6208,VALID,0,VALID,27.4018,VALID,355,VALID,2.81523,
2010-06-16, 00:18:04,VALID,1004.77,VALID,0,VALID,82.5826,VALID,0,VALID,27.4408,VALID,5,VALID,1.83516,
2010-06-16, 00:19:04,VALID,1004.77,VALID,0,VALID,82.6894,VALID,0,VALID,27.4213,VALID,29,VALID,1.33242,
2010-06-16, 00:20:04,VALID,1004.76,VALID,0,VALID,82.7428,VALID,0,VALID,27.4018,VALID,14,VALID,1.28867,
2010-06-16, 00:21:04,VALID,1004.78,VALID,0,VALID,82.7276,VALID,0,VALID,27.4039,VALID,17,VALID,1.23867,
2010-06-16, 00:22:04,VALID,1004.75,VALID,0,VALID,82.7276,VALID,0,VALID,27.4233,VALID,28,VALID,1.68008,
2010-06-16, 00:23:04,VALID,1004.75,VALID,0,VALID,82.6131,VALID,0,VALID,27.4428,VALID,23,VALID,1.88516,
2010-06-16, 00:24:04,VALID,1004.73,VALID,0,VALID,82.6818,VALID,0,VALID,27.4233,VALID,355,VALID,1.13516,
2010-06-16, 00:25:04,VALID,1004.7,VALID,0,VALID,82.575,VALID,0,VALID,27.4233,VALID,4,VALID,1.75625,
2010-06-16, 00:26:04,VALID,1004.7,VALID,0,VALID,82.6818,VALID,0,VALID,27.4213,VALID,19,VALID,1.08047,
2010-06-16, 00:27:04,VALID,1004.69,VALID,0,VALID,82.8802,VALID,0,VALID,27.4039,VALID,12,VALID,0.800781,
2010-06-16, 00:28:04,VALID,1004.69,VALID,0,VALID,83.0861,VALID,0,VALID,27.3649,VALID,44,VALID,0.306641,
2010-06-16, 00:29:04,VALID,1004.7,VALID,0,VALID,83.2845,VALID,0,VALID,27.2849,VALID,20,VALID,1.53594,
2010-06-16, 00:30:04,VALID,1004.68,VALID,0,VALID,83.1624,VALID,0,VALID,27.3044,VALID,58,VALID,1.30664,
2010-06-16, 00:31:04,VALID,1004.72,VALID,0,VALID,83.0404,VALID,0,VALID,27.3454,VALID,29,VALID,1.51602,
2010-06-16, 00:32:04,VALID,1004.7,VALID,0,VALID,82.9488,VALID,0,VALID,27.3844,VALID,43,VALID,0.849609,
2010-06-16, 00:33:04,VALID,1004.7,VALID,0,VALID,82.7047,VALID,0,VALID,27.4039,VALID,27,VALID,2.09453,
2010-06-16, 00:34:04,VALID,1004.72,VALID,0,VALID,82.6742,VALID,0,VALID,27.4233,VALID,1,VALID,1.56797,
2010-06-16, 00:35:04,VALID,1004.72,VALID,0,VALID,82.5826,VALID,0,VALID,27.4233,VALID,18,VALID,1.92695,
2010-06-16, 00:36:04,VALID,1004.66,VALID,0,VALID,82.6818,VALID,0,VALID,27.4449,VALID,15,VALID,0.843359,
2010-06-16, 00:37:04,VALID,1004.67,VALID,0,VALID,82.8191,VALID,0,VALID,27.3628,VALID,33,VALID,0.349609,
2010-06-16, 00:38:04,VALID,1004.68,VALID,0,VALID,83.0098,VALID,0,VALID,27.3454,VALID,65,VALID,0.0664063,
2010-06-16, 00:39:04,VALID,1004.66,VALID,0,VALID,83.2082,VALID,0,VALID,27.2869,VALID,75,VALID,0.547266,
2010-06-16, 00:40:04,VALID,1004.67,VALID,0,VALID,83.521,VALID,0,VALID,27.209,VALID,66,VALID,0.507422,
2010-06-16, 00:41:04,VALID,1004.62,VALID,0,VALID,83.8185,VALID,0,VALID,27.17,VALID,65,VALID,0.4125,
2010-06-16, 00:42:04,VALID,1004.57,VALID,0,VALID,84.1618,VALID,0,VALID,27.1116,VALID,65,VALID,0.214062,
2010-06-16, 00:43:04,VALID,1004.58,VALID,0,VALID,84.4593,VALID,0,VALID,27.0336,VALID,65,VALID,0.327344,
2010-06-16, 00:44:04,VALID,1004.55,VALID,0,VALID,84.8408,VALID,0,VALID,26.9752,VALID,55,VALID,0.549609,
2010-06-16, 00:45:04,VALID,1004.55,VALID,0,VALID,85.0849,VALID,0,VALID,26.9167,VALID,51,VALID,0.583984,
2010-06-16, 00:46:04,VALID,1004.56,VALID,0,VALID,85.2527,VALID,0,VALID,26.8778,VALID,18,VALID,0.878906,
2010-06-16, 00:47:04,VALID,1004.58,VALID,0,VALID,85.4053,VALID,0,VALID,26.8583,VALID,10,VALID,1.02305,
2010-06-16, 00:48:04,VALID,1004.56,VALID,0,VALID,85.5579,VALID,0,VALID,26.8388,VALID,44,VALID,0.4125,
2010-06-16, 00:49:04,VALID,1004.56,VALID,0,VALID,85.6876,VALID,0,VALID,26.7998,VALID,34,VALID,0.859766,
2010-06-16, 00:50:04,VALID,1004.58,VALID,0,VALID,85.8554,VALID,0,VALID,26.7804,VALID,20,VALID,0.725781,
2010-06-16, 00:51:04,VALID,1004.53,VALID,0,VALID,86.0461,VALID,0,VALID,26.7414,VALID,39,VALID,0.438281,
2010-06-16, 00:52:04,VALID,1004.55,VALID,0,VALID,86.2216,VALID,0,VALID,26.6614,VALID,24,VALID,0.554297,
2010-06-16, 00:53:04,VALID,1004.52,VALID,0,VALID,86.2979,VALID,0,VALID,26.683,VALID,18,VALID,0.451172,
2010-06-16, 00:54:04,VALID,1004.47,VALID,0,VALID,86.4505,VALID,0,VALID,26.644,VALID,16,VALID,0.855859,
2010-06-16, 00:55:04,VALID,1004.47,VALID,0,VALID,86.3437,VALID,0,VALID,26.683,VALID,21,VALID,0.953125,
2010-06-16, 00:56:04,VALID,1004.44,VALID,0,VALID,86.0919,VALID,0,VALID,26.7219,VALID,19,VALID,0.844922,
2010-06-16, 00:57:04,VALID,1004.43,VALID,0,VALID,85.9088,VALID,0,VALID,26.7609,VALID,31,VALID,1.22578,
2010-06-16, 00:58:04,VALID,1004.41,VALID,0,VALID,85.7639,VALID,0,VALID,26.7998,VALID,13,VALID,1.07227,
2010-06-16, 00:59:04,VALID,1004.43,VALID,0,VALID,85.6494,VALID,0,VALID,26.7978,VALID,33,VALID,0.640234,
2010-06-16, 01:00:04,VALID,1004.39,VALID,0,VALID,85.6113,VALID,0,VALID,26.7998,VALID,26,VALID,0.771875,
2010-06-16, 01:01:04,VALID,1004.4,VALID,0,VALID,85.7181,VALID,0,VALID,26.7998,VALID,18,VALID,0.662891,
2010-06-16, 01:02:04,VALID,1004.35,VALID,0,VALID,85.8554,VALID,0,VALID,26.7199,VALID,18,VALID,0.2125,
2010-06-16, 01:03:04,VALID,1004.37,VALID,0,VALID,85.9546,VALID,0.100563,VALID,26.7219,VALID,18,VALID,0.582031,
2010-06-16, 01:04:04,VALID,1004.42,VALID,0,VALID,86.0995,VALID,0,VALID,26.7024,VALID,18,VALID,0.462109,
2010-06-16, 01:05:04,VALID,1004.42,VALID,0,VALID,86.2216,VALID,0,VALID,26.644,VALID,14,VALID,0.604688,
2010-06-16, 01:06:04,VALID,1004.46,VALID,0,VALID,86.3284,VALID,0,VALID,26.6635,VALID,26,VALID,0.923047,
2010-06-16, 01:07:04,VALID,1004.51,VALID,0,VALID,86.3589,VALID,0,VALID,26.6635,VALID,20,VALID,0.569922,
2010-06-16, 01:08:05,VALID,1004.54,VALID,0,VALID,86.3818,VALID,0,VALID,26.6225,VALID,20,VALID,0.162891,
2010-06-16, 01:09:05,VALID,1004.55,VALID,0,VALID,86.5039,VALID,0,VALID,26.605,VALID,22,VALID,0.266406,
2010-06-16, 01:10:05,VALID,1004.51,VALID,0,VALID,86.7556,VALID,0,VALID,26.5661,VALID,22,VALID,0.423047,
2010-06-16, 01:11:05,VALID,1004.5,VALID,0,VALID,86.9769,VALID,0,VALID,26.4881,VALID,22,VALID,0.496875,
2010-06-16, 01:12:05,VALID,1004.46,VALID,0,VALID,87.2439,VALID,0,VALID,26.4687,VALID,8,VALID,1.15703,
2010-06-16, 01:13:05,VALID,1004.46,VALID,0,VALID,87.1981,VALID,0,VALID,26.4861,VALID,9,VALID,0.764844,
2010-06-16, 01:14:05,VALID,1004.45,VALID,0,VALID,86.9387,VALID,0,VALID,26.5446,VALID,354,VALID,1.00117,
2010-06-16, 01:15:05,VALID,1004.5,VALID,0,VALID,86.6107,VALID,0,VALID,26.644,VALID,33,VALID,0.567187,
2010-06-16, 01:16:05,VALID,1004.45,VALID,0,VALID,86.4428,VALID,0,VALID,26.683,VALID,18,VALID,0.623828,
2010-06-16, 01:17:05,VALID,1004.44,VALID,0,VALID,86.2826,VALID,0,VALID,26.7024,VALID,20,VALID,0.803516,
2010-06-16, 01:18:05,VALID,1004.42,VALID,0,VALID,86.1987,VALID,0,VALID,26.7414,VALID,11,VALID,0.657812,
2010-06-16, 01:19:05,VALID,1004.4,VALID,0,VALID,86.1606,VALID,0,VALID,26.7414,VALID,20,VALID,0.813672,
2010-06-16, 01:20:05,VALID,1004.37,VALID,0,VALID,86.1224,VALID,0,VALID,26.7199,VALID,10,VALID,0.690234,
2010-06-16, 01:21:05,VALID,1004.29,VALID,0,VALID,86.2445,VALID,0,VALID,26.7024,VALID,7,VALID,0.297656,
2010-06-16, 01:22:05,VALID,1004.28,VALID,0,VALID,86.3894,VALID,0.100563,VALID,26.642,VALID,17,VALID,1.12656,
2010-06-16, 01:23:05,VALID,1004.27,VALID,0,VALID,86.3437,VALID,0,VALID,26.7024,VALID,4,VALID,0.678516,
2010-06-16, 01:24:05,VALID,1004.3,VALID,0,VALID,86.3132,VALID,0,VALID,26.6809,VALID,8,VALID,0.775,
2010-06-16, 01:25:05,VALID,1004.29,VALID,0,VALID,86.5649,VALID,0,VALID,26.644,VALID,3,VALID,1.25039,
2010-06-16, 01:26:05,VALID,1004.32,VALID,0,VALID,86.5954,VALID,0,VALID,26.683,VALID,18,VALID,0.667188,
2010-06-16, 01:27:05,VALID,1004.34,VALID,0,VALID,86.8014,VALID,0,VALID,26.644,VALID,17,VALID,0.641797,
2010-06-16, 01:28:05,VALID,1004.36,VALID,0,VALID,87.0532,VALID,0,VALID,26.6635,VALID,20,VALID,1.50352,
2010-06-16, 01:29:05,VALID,1004.39,VALID,0,VALID,86.7785,VALID,0,VALID,26.7804,VALID,30,VALID,1.07813,
2010-06-16, 01:30:05,VALID,1004.41,VALID,0,VALID,86.7327,VALID,0,VALID,26.7978,VALID,112,VALID,0.811328,
2010-06-16, 01:31:05,VALID,1004.47,VALID,0,VALID,86.7404,VALID,0,VALID,26.8778,VALID,38,VALID,0.862109,
2010-06-16, 01:32:05,VALID,1004.45,VALID,0,VALID,85.7562,VALID,0,VALID,26.8952,VALID,17,VALID,2.13398,
2010-06-16, 01:33:05,VALID,1004.45,VALID,0,VALID,84.4975,VALID,0,VALID,26.9947,VALID,23,VALID,1.96484,
2010-06-16, 01:34:05,VALID,1004.46,VALID,0,VALID,84.4136,VALID,0,VALID,27.0511,VALID,17,VALID,1.29727,
2010-06-16, 01:35:05,VALID,1004.47,VALID,0,VALID,84.4899,VALID,0,VALID,27.0726,VALID,15,VALID,0.961719,
2010-06-16, 01:36:05,VALID,1004.48,VALID,0,VALID,84.2076,VALID,0,VALID,27.0121,VALID,20,VALID,1.13281,
2010-06-16, 01:37:05,VALID,1004.45,VALID,0,VALID,84.3602,VALID,0.100563,VALID,26.9926,VALID,91,VALID,0.610156,
2010-06-16, 01:38:05,VALID,1004.44,VALID,0,VALID,84.8332,VALID,0,VALID,26.9537,VALID,24,VALID,0.495313,
2010-06-16, 01:39:05,VALID,1004.42,VALID,0,VALID,84.9857,VALID,0,VALID,26.8952,VALID,12,VALID,0.858594,
2010-06-16, 01:40:05,VALID,1004.35,VALID,0,VALID,84.8255,VALID,0,VALID,26.8583,VALID,59,VALID,0.491406,
2010-06-16, 01:41:05,VALID,1004.36,VALID,0,VALID,85.4358,VALID,0,VALID,26.8193,VALID,70,VALID,0.237891,
2010-06-16, 01:42:05,VALID,1004.32,VALID,0,VALID,85.4129,VALID,0,VALID,26.7394,VALID,79,VALID,0.423047,
2010-06-16, 01:43:05,VALID,1004.3,VALID,0,VALID,85.5579,VALID,0,VALID,26.7219,VALID,79,VALID,0.374609,
2010-06-16, 01:44:05,VALID,1004.3,VALID,0,VALID,85.7639,VALID,0,VALID,26.683,VALID,79,VALID,0.112109,
2010-06-16, 01:45:05,VALID,1004.31,VALID,0,VALID,86.0309,VALID,0,VALID,26.644,VALID,42,VALID,0.478516,
2010-06-16, 01:46:05,VALID,1004.29,VALID,0,VALID,86.4886,VALID,0,VALID,26.605,VALID,34,VALID,0.502344,
2010-06-16, 01:47:05,VALID,1004.26,VALID,0,VALID,86.748,VALID,0,VALID,26.5251,VALID,29,VALID,0.547656,
2010-06-16, 01:48:05,VALID,1004.21,VALID,0,VALID,86.8243,VALID,0,VALID,26.4861,VALID,101,VALID,0.649219,
2010-06-16, 01:49:05,VALID,1004.19,VALID,0,VALID,87.1294,VALID,0,VALID,26.5076,VALID,30,VALID,0.539844,
2010-06-16, 01:50:05,VALID,1004.15,VALID,0,VALID,87.5261,VALID,0,VALID,26.4472,VALID,30,VALID,0.504687,
2010-06-16, 01:51:05,VALID,1004.16,VALID,0,VALID,87.5948,VALID,0,VALID,26.3887,VALID,24,VALID,0.544922,
2010-06-16, 01:52:05,VALID,1004.16,VALID,0,VALID,87.8771,VALID,0,VALID,26.3713,VALID,24,VALID,0.365625,
2010-06-16, 01:53:05,VALID,1004.17,VALID,0,VALID,88.1441,VALID,0,VALID,26.3128,VALID,24,VALID,0.446875,
2010-06-16, 01:54:05,VALID,1004.15,VALID,0,VALID,88.4798,VALID,0,VALID,26.2544,VALID,24,VALID,0.326953,
2010-06-16, 01:55:05,VALID,1004.13,VALID,0,VALID,88.8231,VALID,0,VALID,26.1745,VALID,24,VALID,0.542188,
2010-06-16, 01:56:05,VALID,1004.12,VALID,0,VALID,89.1816,VALID,0.100563,VALID,26.157,VALID,24,VALID,0.20625,
2010-06-16, 01:57:05,VALID,1004.13,VALID,0,VALID,89.5936,VALID,0,VALID,26.12,VALID,24,VALID,0.244922,
2010-06-16, 01:58:05,VALID,1004.15,VALID,0,VALID,90.1963,VALID,0,VALID,26.0381,VALID,24,VALID,0.279687,
2010-06-16, 01:59:05,VALID,1004.17,VALID,0,VALID,91.0888,VALID,0,VALID,25.9992,VALID,24,VALID,0.263672,
2010-06-16, 02:00:05,VALID,1004.17,VALID,0,VALID,93.2249,VALID,0,VALID,25.9602,VALID,25,VALID,0.328906,
2010-06-16, 02:01:05,VALID,1004.19,VALID,0,VALID,93.9954,VALID,0,VALID,25.9408,VALID,44,VALID,0.358984,
2010-06-16, 02:02:05,VALID,1004.19,VALID,0,VALID,94.3998,VALID,0,VALID,25.9602,VALID,44,VALID,0.429297,
2010-06-16, 02:03:05,VALID,1004.19,VALID,0,VALID,95.0101,VALID,0,VALID,25.9408,VALID,28,VALID,0.716797,
2010-06-16, 02:04:05,VALID,1004.2,VALID,0,VALID,95.4297,VALID,0,VALID,25.9817,VALID,350,VALID,0.598828,
2010-06-16, 02:05:05,VALID,1004.2,VALID,0,VALID,95.3915,VALID,0,VALID,26.0206,VALID,350,VALID,0.398047,
2010-06-16, 02:06:05,VALID,1004.17,VALID,0,VALID,95.1169,VALID,0,VALID,25.9992,VALID,350,VALID,0.210938,
2010-06-16, 02:07:05,VALID,1004.14,VALID,0,VALID,95.0787,VALID,0,VALID,25.9992,VALID,359,VALID,0.526563,
2010-06-16, 02:08:05,VALID,1004.11,VALID,0,VALID,94.9872,VALID,0,VALID,26.0576,VALID,3,VALID,0.642578,
2010-06-16, 02:09:05,VALID,1004.13,VALID,0,VALID,95.0864,VALID,0,VALID,26.0596,VALID,3,VALID,0.677344,
2010-06-16, 02:10:05,VALID,1004.12,VALID,0,VALID,95.3,VALID,0,VALID,26.0401,VALID,13,VALID,0.914063,
2010-06-16, 02:11:05,VALID,1004.11,VALID,0,VALID,95.3152,VALID,0,VALID,26.0576,VALID,23,VALID,0.792578,
2010-06-16, 02:12:05,VALID,1004.07,VALID,0,VALID,94.9643,VALID,0,VALID,26.1395,VALID,28,VALID,0.798437,
2010-06-16, 02:13:05,VALID,1004.07,VALID,0,VALID,94.0412,VALID,0,VALID,26.155,VALID,21,VALID,1.08281,
2010-06-16, 02:14:05,VALID,1004.01,VALID,0,VALID,92.7824,VALID,0,VALID,26.2134,VALID,14,VALID,1.16055,
2010-06-16, 02:15:05,VALID,1004.02,VALID,0,VALID,91.1346,VALID,0,VALID,26.2719,VALID,15,VALID,1.39766,
2010-06-16, 02:16:05,VALID,1004.02,VALID,0,VALID,90.2268,VALID,0,VALID,26.3518,VALID,23,VALID,0.730859,
2010-06-16, 02:17:05,VALID,1003.99,VALID,0,VALID,89.5631,VALID,0,VALID,26.4122,VALID,32,VALID,1.01484,
2010-06-16, 02:18:05,VALID,1004.01,VALID,0,VALID,89.174,VALID,0,VALID,26.4512,VALID,45,VALID,0.882422,
2010-06-16, 02:19:05,VALID,1003.99,VALID,0,VALID,89.0901,VALID,0,VALID,26.4901,VALID,36,VALID,0.847656,
2010-06-16, 02:20:05,VALID,1003.99,VALID,0,VALID,88.6934,VALID,0,VALID,26.4687,VALID,22,VALID,1.78711,
2010-06-16, 02:21:05,VALID,1003.98,VALID,0,VALID,88.4798,VALID,0,VALID,26.5876,VALID,17,VALID,0.732422,
2010-06-16, 02:22:05,VALID,1003.98,VALID,0,VALID,88.2051,VALID,0,VALID,26.5855,VALID,24,VALID,0.934766,
2010-06-16, 02:23:05,VALID,1003.94,VALID,0,VALID,88.0754,VALID,0,VALID,26.607,VALID,63,VALID,0.540625,
2010-06-16, 02:24:05,VALID,1003.93,VALID,0,VALID,88.1212,VALID,0,VALID,26.607,VALID,48,VALID,0.83125,
2010-06-16, 02:25:05,VALID,1003.94,VALID,0,VALID,88.0373,VALID,0,VALID,26.6245,VALID,23,VALID,2.70039,
2010-06-16, 02:26:05,VALID,1003.97,VALID,0,VALID,87.5109,VALID,0,VALID,26.7629,VALID,8,VALID,1.67383,
2010-06-16, 02:27:05,VALID,1003.97,VALID,0,VALID,87.1447,VALID,0,VALID,26.7998,VALID,65,VALID,0.667188,
2010-06-16, 02:28:05,VALID,1003.99,VALID,0,VALID,87.0455,VALID,0,VALID,26.7804,VALID,22,VALID,1.78789,
2010-06-16, 02:29:05,VALID,1004.01,VALID,0,VALID,87.0379,VALID,0,VALID,26.8193,VALID,18,VALID,0.907031,
2010-06-16, 02:30:05,VALID,1003.98,VALID,0,VALID,86.9845,VALID,0,VALID,26.8214,VALID,21,VALID,0.787891,
2010-06-16, 02:31:05,VALID,1003.99,VALID,0,VALID,87.0532,VALID,0,VALID,26.7783,VALID,359,VALID,0.857813,
2010-06-16, 02:32:05,VALID,1003.99,VALID,0,VALID,87.0608,VALID,0,VALID,26.7804,VALID,14,VALID,0.909766,
2010-06-16, 02:33:05,VALID,1003.97,VALID,0,VALID,86.954,VALID,0,VALID,26.7998,VALID,20,VALID,1.33047,
2010-06-16, 02:34:05,VALID,1003.97,VALID,0,VALID,86.8624,VALID,0,VALID,26.8193,VALID,12,VALID,1.13242,
2010-06-16, 02:35:05,VALID,1003.95,VALID,0,VALID,86.8319,VALID,0,VALID,26.8408,VALID,351,VALID,1.2957,
2010-06-16, 02:36:05,VALID,1003.94,VALID,0,VALID,86.7709,VALID,0,VALID,26.8214,VALID,349,VALID,1.27813,
2010-06-16, 02:37:05,VALID,1003.93,VALID,0,VALID,86.7099,VALID,0,VALID,26.8408,VALID,23,VALID,2.31406,
2010-06-16, 02:38:05,VALID,1003.94,VALID,0,VALID,86.6412,VALID,0,VALID,26.8603,VALID,12,VALID,0.998047,
2010-06-16, 02:39:05,VALID,1003.91,VALID,0,VALID,86.4962,VALID,0,VALID,26.8583,VALID,18,VALID,2.52109,
2010-06-16, 02:40:05,VALID,1003.9,VALID,0,VALID,86.2598,VALID,0,VALID,26.9383,VALID,357,VALID,1.31602,
2010-06-16, 02:41:05,VALID,1003.86,VALID,0,VALID,86.0614,VALID,0,VALID,26.9772,VALID,23,VALID,1.23281,
2010-06-16, 02:42:05,VALID,1003.85,VALID,0,VALID,86.0156,VALID,0,VALID,26.9772,VALID,4,VALID,1.56328,
2010-06-16, 02:43:05,VALID,1003.84,VALID,0,VALID,86.069,VALID,0,VALID,26.9772,VALID,6,VALID,1.84141,
2010-06-16, 02:44:05,VALID,1003.84,VALID,0,VALID,86.0233,VALID,0,VALID,26.9557,VALID,30,VALID,1.47461,
2010-06-16, 02:45:05,VALID,1003.81,VALID,0,VALID,86.0156,VALID,0,VALID,26.9752,VALID,8,VALID,1.01953,
2010-06-16, 02:46:05,VALID,1003.81,VALID,0,VALID,86.0461,VALID,0,VALID,26.9537,VALID,355,VALID,1.80391,
2010-06-16, 02:47:05,VALID,1003.8,VALID,0,VALID,86.0919,VALID,0,VALID,26.9537,VALID,17,VALID,0.889453,
2010-06-16, 02:48:05,VALID,1003.84,VALID,0,VALID,86.1682,VALID,0,VALID,26.9537,VALID,15,VALID,1.6793,
2010-06-16, 02:49:05,VALID,1003.81,VALID,0,VALID,85.9165,VALID,0,VALID,27.0142,VALID,36,VALID,1.90898,
2010-06-16, 02:50:05,VALID,1003.83,VALID,0,VALID,85.6266,VALID,0,VALID,27.0921,VALID,4,VALID,1.58203,
2010-06-16, 02:51:05,VALID,1003.81,VALID,0,VALID,85.2375,VALID,0,VALID,27.129,VALID,19,VALID,1.60547,
2010-06-16, 02:52:05,VALID,1003.82,VALID,0,VALID,85.1002,VALID,0,VALID,27.17,VALID,23,VALID,1.11484,
2010-06-16, 02:53:05,VALID,1003.82,VALID,0,VALID,85.2833,VALID,0,VALID,27.1311,VALID,36,VALID,1.12734,
2010-06-16, 02:54:05,VALID,1003.85,VALID,0,VALID,85.4663,VALID,0,VALID,27.0511,VALID,13,VALID,1.62305,
2010-06-16, 02:55:05,VALID,1003.87,VALID,0,VALID,85.4129,VALID,0,VALID,27.0706,VALID,12,VALID,1.20781,
2010-06-16, 02:56:05,VALID,1003.87,VALID,0,VALID,85.2451,VALID,0,VALID,27.09,VALID,13,VALID,2.04961,
2010-06-16, 02:57:05,VALID,1003.85,VALID,0,VALID,84.9857,VALID,0,VALID,27.17,VALID,49,VALID,1.35312,
2010-06-16, 02:58:05,VALID,1003.8,VALID,0,VALID,84.9857,VALID,0,VALID,27.1895,VALID,6,VALID,1.60195,
2010-06-16, 02:59:05,VALID,1003.82,VALID,0,VALID,84.8866,VALID,0,VALID,27.1895,VALID,346,VALID,1.67656,
2010-06-16, 03:00:05,VALID,1003.84,VALID,0,VALID,85.0391,VALID,0,VALID,27.1506,VALID,353,VALID,1.25078,
2010-06-16, 03:01:05,VALID,1003.85,VALID,0,VALID,85.2527,VALID,0,VALID,27.1095,VALID,11,VALID,1.36133,
2010-06-16, 03:02:05,VALID,1003.82,VALID,0,VALID,85.1383,VALID,0,VALID,27.1116,VALID,349,VALID,0.919922,
2010-06-16, 03:03:05,VALID,1003.8,VALID,0,VALID,85.4206,VALID,0,VALID,27.09,VALID,3,VALID,1.09609,
2010-06-16, 03:04:05,VALID,1003.76,VALID,0,VALID,85.4511,VALID,0,VALID,27.0316,VALID,37,VALID,1.03867,
2010-06-16, 03:05:05,VALID,1003.76,VALID,0,VALID,85.3977,VALID,0.100563,VALID,27.0316,VALID,354,VALID,1.0875,
2010-06-16, 03:06:05,VALID,1003.79,VALID,0,VALID,85.6418,VALID,0,VALID,27.0121,VALID,9,VALID,1.53984,
2010-06-16, 03:07:05,VALID,1003.87,VALID,0,VALID,85.535,VALID,0,VALID,27.0142,VALID,16,VALID,1.53008,
2010-06-16, 03:08:05,VALID,1003.88,VALID,0,VALID,85.207,VALID,0,VALID,27.0316,VALID,19,VALID,2.2582,
2010-06-16, 03:09:05,VALID,1003.91,VALID,0,VALID,84.8179,VALID,0,VALID,27.1116,VALID,23,VALID,1.41445,
2010-06-16, 03:10:05,VALID,1003.88,VALID,0,VALID,84.4593,VALID,0,VALID,27.1895,VALID,6,VALID,1.17461,
2010-06-16, 03:11:05,VALID,1003.85,VALID,0,VALID,84.5967,VALID,0,VALID,27.209,VALID,360,VALID,0.560938,
2010-06-16, 03:12:05,VALID,1003.8,VALID,0,VALID,84.4136,VALID,0,VALID,27.1895,VALID,314,VALID,0.577734,
2010-06-16, 03:13:05,VALID,1003.75,VALID,0,VALID,84.6501,VALID,0.100563,VALID,27.1506,VALID,15,VALID,1.18984,
2010-06-16, 03:14:05,VALID,1003.78,VALID,0,VALID,84.4136,VALID,0,VALID,27.1485,VALID,11,VALID,1.37305,
2010-06-16, 03:15:05,VALID,1003.82,VALID,0,VALID,84.2228,VALID,0,VALID,27.1875,VALID,50,VALID,0.810156,
2010-06-16, 03:16:05,VALID,1003.85,VALID,0,VALID,84.2,VALID,0,VALID,27.2285,VALID,20,VALID,1.12617,
2010-06-16, 03:17:05,VALID,1003.83,VALID,0,VALID,84.2762,VALID,0,VALID,27.2285,VALID,21,VALID,1.42695,
2010-06-16, 03:18:05,VALID,1003.82,VALID,0,VALID,84.2305,VALID,0,VALID,27.248,VALID,12,VALID,0.704687,
2010-06-16, 03:19:05,VALID,1003.8,VALID,0,VALID,84.2228,VALID,0,VALID,27.2069,VALID,360,VALID,1.19453,
2010-06-16, 03:20:05,VALID,1003.78,VALID,0,VALID,84.2152,VALID,0,VALID,27.2675,VALID,50,VALID,0.840234,
2010-06-16, 03:21:05,VALID,1003.74,VALID,0,VALID,84.4136,VALID,0,VALID,27.248,VALID,48,VALID,0.183984,
2010-06-16, 03:22:05,VALID,1003.75,VALID,0,VALID,84.4593,VALID,0.100563,VALID,27.209,VALID,48,VALID,0.136719,
2010-06-16, 03:23:05,VALID,1003.79,VALID,0,VALID,84.6272,VALID,0,VALID,27.1895,VALID,48,VALID,0.228516,
2010-06-16, 03:24:05,VALID,1003.83,VALID,0,VALID,84.7645,VALID,0,VALID,27.1311,VALID,49,VALID,0.426562,
2010-06-16, 03:25:05,VALID,1003.85,VALID,0,VALID,84.9247,VALID,0,VALID,27.1311,VALID,45,VALID,0.422266,
2010-06-16, 03:26:05,VALID,1003.9,VALID,0,VALID,85.0696,VALID,0,VALID,27.0921,VALID,53,VALID,0.182422,
2010-06-16, 03:27:05,VALID,1003.96,VALID,0,VALID,85.062,VALID,0,VALID,27.0921,VALID,52,VALID,0.567969,
2010-06-16, 03:28:05,VALID,1003.97,VALID,0,VALID,84.9171,VALID,0,VALID,27.1116,VALID,74,VALID,1.37031,
2010-06-16, 03:29:05,VALID,1003.98,VALID,0,VALID,85.0468,VALID,0,VALID,27.1116,VALID,36,VALID,0.399609,
2010-06-16, 03:30:05,VALID,1003.98,VALID,0,VALID,85.001,VALID,0,VALID,27.0921,VALID,45,VALID,0.564844,
2010-06-16, 03:31:05,VALID,1003.98,VALID,0,VALID,84.9857,VALID,0,VALID,27.0921,VALID,34,VALID,0.292188,
2010-06-16, 03:32:05,VALID,1003.95,VALID,0,VALID,85.1078,VALID,0,VALID,27.0921,VALID,55,VALID,0.117578,
2010-06-16, 03:33:05,VALID,1003.92,VALID,0,VALID,85.1841,VALID,0,VALID,27.0511,VALID,55,VALID,0.164453,
2010-06-16, 03:34:05,VALID,1003.98,VALID,0,VALID,85.2299,VALID,0,VALID,27.0726,VALID,41,VALID,0.616797,
2010-06-16, 03:35:05,VALID,1004,VALID,0,VALID,85.1612,VALID,0,VALID,27.0316,VALID,20,VALID,0.774609,
2010-06-16, 03:36:05,VALID,1004.02,VALID,0,VALID,85.0925,VALID,0,VALID,27.0316,VALID,353,VALID,0.505469,
2010-06-16, 03:37:05,VALID,1004.08,VALID,0,VALID,85.0162,VALID,0,VALID,27.0726,VALID,26,VALID,0.564062,
2010-06-16, 03:38:05,VALID,1004.14,VALID,0,VALID,85.0468,VALID,0,VALID,27.0726,VALID,28,VALID,0.767578,
2010-06-16, 03:39:05,VALID,1004.12,VALID,0,VALID,84.8866,VALID,0,VALID,27.0706,VALID,26,VALID,0.186719,
2010-06-16, 03:40:05,VALID,1004.15,VALID,0,VALID,84.8789,VALID,0,VALID,27.0706,VALID,329,VALID,0.204297,
2010-06-16, 03:41:05,VALID,1004.17,VALID,0,VALID,84.9552,VALID,0,VALID,27.0531,VALID,329,VALID,0.144141,
2010-06-16, 03:42:05,VALID,1004.15,VALID,0,VALID,85.1459,VALID,0,VALID,27.0316,VALID,329,VALID,0.232031,
2010-06-16, 03:43:05,VALID,1004.18,VALID,0,VALID,85.4587,VALID,0,VALID,27.0121,VALID,329,VALID,0.338281,
2010-06-16, 03:44:05,VALID,1004.17,VALID,0,VALID,85.4816,VALID,0.100563,VALID,26.9947,VALID,36,VALID,0.397656,
2010-06-16, 03:45:05,VALID,1004.21,VALID,0,VALID,85.5808,VALID,0,VALID,26.9752,VALID,36,VALID,0.220703,
2010-06-16, 03:46:05,VALID,1004.23,VALID,0,VALID,85.7944,VALID,0,VALID,26.9362,VALID,36,VALID,0.355469,